Location: *
(46.8403°N, 29.6433°E)
Time: 18:20:39
(UTC+00:00)

Daily predictions for brighter satellites

Satellite Brightness Start Highest point End
(mag) Time Altitude Azimuth Time Altitude Azimuth Time Altitude Azimuth
YAOGAN 1 3.3 15:40:14 10° SE 15:44:06 32° ENE 15:47:58 10° N
Unknown 4.1 15:40:26 10° SSW 15:44:22 44° SE 15:48:20 10° ENE
Gbstr 26 Del rocket 4.4 15:39:09 10° W 15:44:44 56° N 15:51:37 10° ENE
Unknown 4.1 15:42:07 10° SW 15:46:05 45° SE 15:50:03 10° ENE
Cosmos 2263 Rocket 3.2 15:44:10 10° SW 15:49:41 51° WNW 15:55:12 10° NNE
CSL-04 Rocket 4.0 15:46:36 10° SE 15:51:53 47° ENE 15:57:09 10° N
SL-4 R/B 1.8 15:48:05 10° WNW 15:52:03 72° NNE 15:55:42 10° ESE
Unknown 3.9 15:48:40 10° SW 15:52:41 51° SE 15:56:43 10° ENE
Unknown 3.8 15:48:48 10° SW 15:52:49 56° SE 15:56:49 10° ENE
Unknown 3.9 15:50:17 10° SW 15:54:19 52° SE 15:58:21 10° ENE
Unknown 4.4 15:51:51 10° NW 15:54:31 25° N 15:57:13 10° ENE
Okean-O 3.1 15:51:09 10° S 15:55:33 68° WSW 16:00:00 10° NNW
Unknown 3.9 15:51:58 10° SW 15:56:00 54° SE 16:00:03 10° ENE
Cosmos 724 4.4 15:50:21 10° SSW 15:56:27 69° ESE 16:02:28 10° NE
Unknown 3.8 15:53:36 10° SW 15:57:39 55° SE 16:01:43 10° ENE
Cosmos 1821 Rocket 4.0 15:52:21 10° N 15:58:25 63° ENE 16:04:28 10° SSE
Cosmos 1726 Rocket 4.0 15:54:57 10° SSE 15:59:02 38° E 16:03:06 10° NNE
Unknown 3.8 15:55:13 10° SW 15:59:16 57° SE 16:03:21 10° ENE
CZ-2D R/B 4.3 15:56:45 10° ESE 15:59:55 25° ENE 16:03:07 10° NNE
Cosmos 1271 Rocket 2.9 15:58:43 10° N 16:02:35 50° ENE 16:06:28 10° SSE
Unknown 3.8 15:58:35 10° SW 16:02:40 60° SE 16:06:40 10° ENE
Starlink (trailer) 3.7 16:00:12 10° SW 16:04:17 62° SE 16:08:14 11° ENE
Lacrosse 5 3.3 16:00:12 10° NW 16:04:28 26° N 16:08:44 10° ENE
Cosmos 1833 Rocket 4.1 16:00:25 10° N 16:04:30 20° NE 16:08:01 12° E
Nadezhda 3 Rocket 4.0 15:59:11 10° S 16:05:23 70° E 16:11:41 10° NNE
Unknown 3.7 16:01:53 10° SW 16:05:58 63° SE 16:09:51 11° ENE
Cosmos 2058 Rocket 3.8 16:02:18 10° SSE 16:06:06 30° E 16:09:54 10° NNE
Unknown 3.7 16:03:29 10° SW 16:07:35 65° SE 16:11:25 12° ENE
Unknown 3.5 16:03:36 10° WSW 16:07:39 84° SSE 16:11:31 11° ENE
Cosmos 1953 2.3 16:03:38 10° S 16:07:39 67° E 16:11:43 10° NNE
COBE Rocket 4.0 16:07:14 10° NNE 16:12:28 88° ESE 16:17:35 10° SSW
Cosmos 1758 3.9 16:08:34 10° SSW 16:12:30 62° W 16:16:28 10° N
Unknown 3.6 16:10:05 10° SW 16:14:13 72° SSE 16:17:48 14° ENE
Shenzhou-11 Module 3.6 16:12:08 10° SSW 16:14:14 19° SSE 16:15:33 14° SE
Unknown 3.6 16:10:11 10° SW 16:14:17 73° SSE 16:17:53 13° ENE
Cosmos 1703 4.1 16:11:09 10° N 16:14:40 30° ENE 16:18:08 10° SE
Unknown 3.6 16:10:58 10° SW 16:15:05 73° SSE 16:18:38 14° ENE
Cosmos 1934 Rocket 4.1 16:09:00 10° N 16:15:11 55° ENE 16:21:25 10° SSE
COSMOS 2406 3.7 16:09:45 10° NNW 16:15:13 41° NE 16:20:37 10° ESE
Cosmos 2228 3.0 16:12:05 10° S 16:16:24 61° E 16:20:43 10° NNE
Cosmos 482 Debris 4.4 16:11:14 10° WNW 16:16:45 67° NNE 16:19:11 18° E
Envisat 3.4 16:14:04 10° S 16:19:07 69° WSW 16:24:14 10° NNW
Unknown 3.6 16:15:04 10° SW 16:19:13 78° SSE 16:22:36 15° ENE
Unknown 3.6 16:15:06 10° SW 16:19:13 78° SSE 16:22:37 15° ENE
Cosmos 2082 Rocket 3.7 16:15:35 10° N 16:19:39 19° NE 16:22:13 15° ENE
Cosmos 1626 3.6 16:16:29 10° NNW 16:20:01 41° W 16:23:31 10° SSW
Unknown 3.6 16:16:50 10° SW 16:20:58 82° SSE 16:24:20 15° ENE
FengYun 1-2 T 4.4 16:16:41 10° SSE 16:22:20 82° WSW 16:28:00 10° NNW
Unknown 3.6 16:20:08 10° WSW 16:24:17 85° SSE 16:27:30 16° ENE
Unknown 3.6 16:20:47 10° WSW 16:24:55 84° SSE 16:28:06 17° ENE
Cosmos 304 Rocket 4.4 16:20:17 10° SW 16:25:01 60° WNW 16:29:48 10° NNE
COSMO-SKYMED 1 2.7 16:20:50 10° NNE 16:25:12 82° WNW 16:29:33 10° SSW
Unknown 3.6 16:21:44 10° WSW 16:25:52 85° SSE 16:29:01 17° ENE
Cosmos 292 Rocket 4.4 16:23:19 10° SSE 16:27:29 31° ESE 16:31:40 10° NE
Cosmos 1726 2.4 16:25:04 10° SSE 16:28:32 41° E 16:32:00 10° NNE
Cosmos 921 Rocket 3.2 16:24:23 10° S 16:28:44 51° ESE 16:33:06 10° NNE
Unknown 3.6 16:24:56 10° WSW 16:29:05 86° SSE 16:32:05 18° ENE
Cosmos 1939 Rocket 3.1 16:25:36 10° SE 16:29:22 46° ENE 16:33:14 10° N
CSL-04 Debris 4.2 16:25:08 10° SSE 16:30:34 87° WSW 16:36:06 10° NNW
Unknown 3.6 16:28:21 10° WSW 16:32:30 88° NNW 16:35:24 19° ENE
Unknown 3.6 16:30:01 10° WSW 16:34:09 86° NNW 16:36:58 20° ENE
Unknown 3.6 16:31:43 10° WSW 16:35:51 84° NNW 16:38:37 21° ENE
Unknown 3.6 16:33:22 10° WSW 16:37:31 82° NNW 16:40:13 21° ENE
Cosmos 1953 Rocket 3.8 16:34:42 10° NNW 16:39:06 72° W 16:43:25 10° S
Lacrosse 5 rocket 1.2 16:35:41 10° NW 16:39:27 78° SW 16:42:02 20° SE
Cosmos 1356 3.5 16:36:21 10° S 16:39:40 48° E 16:43:01 10° NNE
Unknown 3.7 16:36:40 10° WSW 16:40:49 79° NNW 16:43:22 23° ENE
USA 116 3.2 16:38:26 10° NNE 16:41:32 80° WNW 16:44:46 10° SSW
Unknown 3.7 16:38:24 10° WSW 16:42:33 77° NNW 16:45:03 23° ENE
Cosmos 2084 3.5 16:39:17 10° SW 16:43:49 81° SE 16:47:31 15° NE
Unknown 3.7 16:40:02 10° WSW 16:44:10 76° NNW 16:46:35 24° NE
ADEOS Rocket 4.3 16:38:00 10° NNE 16:44:24 27° E 16:50:30 10° SE
Meteor 1-16 Rocket 4.1 16:39:10 10° S 16:44:47 82° E 16:50:16 10° NNE
Unknown 3.7 16:41:38 10° WSW 16:45:46 76° NNW 16:48:07 25° NE
CZ-4 R/B 2.7 16:42:17 10° S 16:46:14 44° W 16:50:17 10° NNW
Unknown 3.7 16:42:17 10° WSW 16:46:26 74° NNW 16:48:46 25° NE
Cosmos 1844 Rocket 2.9 16:42:55 10° SSW 16:48:35 73° WNW 16:54:15 10° NNE
Unknown 3.7 16:44:49 10° WSW 16:48:57 75° NNW 16:51:09 27° NE
Unknown 3.7 16:48:11 10° WSW 16:52:19 72° NNW 16:54:23 28° NE
Cosmos 1242 Rocket 2.6 16:49:58 10° NNW 16:53:39 79° W 16:57:19 10° S
Unknown 3.8 16:49:49 10° WSW 16:53:57 71° NNW 16:55:57 29° NE
Cosmos 1328 3.7 16:50:04 10° N 16:54:06 87° W 16:58:03 10° S
Unknown 4.4 16:52:03 10° W 16:55:46 41° NNW 16:57:32 25° NE
Unknown 3.9 16:51:45 10° WSW 16:55:52 66° NNW 16:57:49 30° NE
Unknown 3.8 16:53:08 10° WSW 16:57:16 68° NNW 16:59:08 31° NE
Cosmos 1908 3.1 16:54:19 10° S 16:58:11 64° E 17:02:04 10° NNE
Unknown 3.8 16:54:51 10° WSW 16:58:58 66° NNW 17:00:46 32° NE
ASTEX 1 4.4 16:55:16 10° N 17:00:01 49° WNW 17:04:47 10° SSW
Meteor 2-10 3.8 16:55:04 10° S 17:00:12 86° E 17:05:17 10° NNE
SPOT 3 Rocket 4.1 16:59:11 33° E 17:00:17 37° ENE 17:05:01 10° N
Unknown 3.1 16:58:12 10° NW 17:00:24 48° NNW 17:00:24 48° NNW
Cosmos 489 Rocket 4.4 16:55:00 10° S 17:01:09 67° ESE 17:07:18 10° NNE
Ariane Rocket 2.9 16:56:32 10° SSE 17:01:38 88° ENE 17:06:47 10° NNW
Cosmos 2278 Rocket 2.6 16:56:41 10° S 17:01:53 39° ESE 17:04:32 25° ENE
Unknown 3.9 16:58:08 10° WSW 17:02:15 64° NNW 17:03:55 34° NE
Unknown 3.9 16:59:52 10° WSW 17:03:59 63° NNW 17:05:34 35° NE
Cosmos 1844 4.0 16:59:00 10° SW 17:04:41 70° WNW 17:10:29 10° NNE
Unknown 3.9 17:01:32 10° WSW 17:05:38 62° NNW 17:07:09 36° NE
Unknown 4.0 17:03:14 10° WSW 17:07:20 61° NNW 17:08:46 37° NE
Unknown 4.4 17:05:01 10° NW 17:08:04 29° N 17:08:17 29° NNE
USA 234 3.9 17:10:05 30° ESE 17:10:28 30° SE 17:16:06 10° S
Unknown 4.0 17:06:34 10° WSW 17:10:39 58° NNW 17:11:58 38° NE
Unknown 4.1 17:08:21 10° W 17:12:26 56° NNW 17:13:40 39° NE
Unknown 4.2 17:08:35 10° W 17:12:39 53° NNW 17:13:54 38° NNE
CZ-4C R/B 4.3 17:06:57 10° NW 17:13:38 38° WSW 17:21:01 10° S
Unknown 4.2 17:10:10 10° W 17:14:15 53° NNW 17:15:26 39° NNE
Cosmos 839 Rocket 4.1 17:08:03 10° NW 17:14:15 80° WSW 17:19:23 19° SSE
Falcon 9 debris 4.5 17:12:23 10° NW 17:15:25 30° N 17:15:25 30° N
Unknown 4.1 17:13:11 10° W 17:17:16 54° NNW 17:18:17 42° NNE
H-2A R/B 2.4 17:19:01 44° ENE 17:19:19 45° ENE 17:24:24 10° N
Unknown 4.2 17:16:34 10° W 17:20:37 53° NNW 17:21:30 43° NNE
Cosmos 1777 Rocket 3.9 17:15:51 10° NNW 17:21:06 88° ENE 17:23:20 36° SSE
ATLAS 5 CENTAUR R/B 3.2 17:17:26 10° WSW 17:21:26 34° NW 17:25:35 12° NNE
Unknown 4.2 17:18:17 10° W 17:22:21 52° NNW 17:23:10 44° NNE
SJ-11-01 4.1 17:21:10 47° SSE 17:22:30 75° ENE 17:27:12 10° N
Unknown 4.2 17:19:54 10° W 17:23:57 51° NNW 17:24:42 44° NNE
Unknown 4.2 17:21:38 10° W 17:25:40 50° NNW 17:26:21 45° NNE
CZ-2C R/B 3.9 17:29:50 38° NE 17:29:50 38° NE 17:34:42 10° N
SL-4 R/B 3.4 17:28:14 10° W 17:31:21 25° SW 17:31:41 24° SSW
Unknown 4.3 17:28:23 10° W 17:32:19 45° NNW 17:32:40 43° N
Unknown 4.3 17:28:19 10° W 17:32:20 47° NNW 17:32:43 46° N
Gbstr 26 Del rocket 4.2 17:26:20 10° WNW 17:32:40 70° NNE 17:34:51 47° E
Unknown 4.3 17:29:58 10° W 17:33:59 47° NNW 17:34:17 46° N
Unknown 4.3 17:31:41 10° W 17:35:41 46° NNW 17:35:55 46° N
Unknown 4.4 17:33:20 10° W 17:37:20 45° NNW 17:37:30 45° N
Unknown 4.4 17:34:58 10° W 17:38:59 45° NNW 17:39:04 45° NNW
Cosmos 1076 Rocket 4.1 17:34:48 10° N 17:38:00 47° N 17:38:00 47° N
Cosmos 1461 3.9 17:36:52 10° NNW 17:39:33 36° N 17:39:33 36° N
Unknown 4.5 17:38:24 10° W 17:42:20 44° NNW 17:42:20 44° NNW
BREEZE M DEB (TANK) 3.4 17:41:13 10° W 17:44:06 46° SSW 17:44:17 46° SSW
Cosmos 1459 Rocket 3.8 17:41:02 10° N 17:47:12 69° E 17:47:39 66° ESE
SJ-6B 4.3 17:49:21 30° NNW 17:49:21 30° NNW 17:51:25 10° NNW
Lacrosse 5 2.4 17:43:29 10° NW 17:47:59 48° NNE 17:47:59 48° NNE
Cosmos 1833 Rocket 2.5 17:43:34 10° NNW 17:49:13 88° WSW 17:49:45 74° SSE
Cosmos 1727 Rocket 4.0 17:43:32 10° SSW 17:49:43 77° W 17:55:55 10° N
ARGOS 3.1 17:52:56 75° NE 17:52:56 75° NE 17:58:04 10° NNW
Cosmos 1802 Rocket 4.0 17:47:48 10° N 17:54:05 65° ENE 17:54:05 65° ENE
Resurs 01 Rocket 3.6 17:58:05 19° N 17:58:05 19° N 17:59:30 10° N
Cosmos 2082 Rocket 2.2 17:58:51 10° NNW 18:04:05 74° NNW 18:04:05 74° NNW
Cosmos 2173 Rocket 3.9 18:00:19 10° N 18:06:40 87° W 18:07:03 80° S
Lacrosse 5 rocket 4.1 18:16:37 10° WSW 18:17:43 12° WSW 18:17:43 12° WSW
SJ 16-02 3.9 18:17:03 10° N 18:17:39 13° N 18:17:39 13° N
Cosmos 2100 Rocket 4.3 18:16:18 10° NNW 18:22:25 63° W 18:23:03 59° WSW
ADEOS Rocket 3.7 18:22:43 10° N 18:30:30 72° WNW 18:37:50 10° SSW
Cosmos 2278 Rocket 3.4 18:40:43 10° WSW 18:45:59 38° NW 18:46:34 37° NW
H-2A R/B 3.9 18:59:39 27° WNW 18:59:39 27° WNW 19:03:28 10° NW
